Tracking 35334 objects as of 13-Sep-2026
HD Live streaming from Space Station
objects crossing your sky now

SL-12 R/B(2)

Track SL-12 R/B(2) now!


NORAD ID: 21925
Int'l Code: 1992-017D
Launch date: April 2, 1992
Source: Commonwealth of Independent States (former USSR) (CIS)
Launch site: TYURATAM MISSILE AND SPACE COMPLEX (TTMTR)

Note: This is a ROCKET BODY
Your satellite tracking list
Your tracking list is empty




NASA's NSSDC Master Catalog

Two Line Element Set (TLE):
1 21925U 92017D   26240.17353227 -.00000199  00000-0  00000+0 0  9991
2 21925  13.0096 340.0390 0020402  72.0439 301.2123  1.01088279126043
Source of the keplerian elements: AFSPC